Back to catalog

OPS 0054

DMSP 5A F1

AliveWeatherPO
NORAD 4331·PAYLOAD·🇺🇸 United States

Launched Feb 11, 1970 from Vandenberg Space Force Base

Loading…

Next Passes (next 24 hours)

TLE

FreshSource: Space-Track

Epoch: Sep 14, 2026, 06:22 UTC

1 04331U 70012A   26257.26597128  .00000132  00000-0  62195-4 0  9996
2 04331  99.0126  79.6544 0058152  69.3390 291.4016 14.34671577949950

Track OPS 0054 in real time with AllMySat

Download on the App Store